Location: Mentone
(34.5413°N, 85.5351°W)
Time: 01:00:09
(UTC-05:00)

Cosmos 2026 Rocket - Visible Passes

Search period start: 28 June 2016 00:00
Search period end: 08 July 2016 00:00
Orbit: 940 x 1001 km, 82.9° (Epoch: 27 June)

Date Brightness Start Highest point End Pass type
(mag) Time Alt. Az. Time Alt. Az. Time Alt. Az.
28 Jun 5.0 20:41:39 10° SSW 20:47:31 49° W 20:53:29 10° N visible
29 Jun 6.1 21:06:39 10° SW 21:11:39 26° WNW 21:16:46 10° NNW visible
30 Jun 6.8 21:32:56 10° W 21:36:00 14° WNW 21:39:05 10° NW visible
02 Jul 5.8 20:32:40 10° SW 20:38:08 34° WNW 20:43:43 10° NNW visible
03 Jul 6.7 20:58:16 10° WSW 21:02:23 19° WNW 21:06:35 10° NNW visible
06 Jul 6.6 20:23:58 10° SW 20:28:49 24° WNW 20:33:45 10° NNW visible
07 Jul 7.1 20:50:39 10° W 20:53:11 13° WNW 20:55:45 10° NW visible
